{"data":{"norad_id":55386,"epoch":"2026-05-24T13:32:49.426944Z","epoch_age_seconds":112695,"freshness":"FRESH","line1":"1 55386U 23013BH  26144.56446096  .00000361  00000+0  22658-4 0  9999","line2":"2 55386  43.0043 249.9118 0002006 278.3961  81.6663 15.27575655183102","mean_motion":15.27575655,"eccentricity":0.0002006,"inclination_deg":43.0043,"raan_deg":249.9118,"arg_perigee_deg":278.3961,"mean_anomaly_deg":81.6663,"bstar":2.2658e-5,"rev_number":18310,"period_min":94.267016843758,"perigee_km":481.68575002282,"apogee_km":484.43846310437,"semimajor_km":6861.1991065636,"source":"CELESTRAK","updated_at":"2026-05-25T13:38:17.771747Z"}}